sat.trackr.live / text

‹ back to catalog

YUNHAI-2 02E

NORAD 59284 · 2024-052E

PAYLOAD ACTIVE UNKNOWN

§ Identity

Operator
Country
PRC
Launch date
2024-03-21
Launch site
JSC
Launch vehicle
Mass (kg)
RCS (m²)

External: N2YO · Heavens-Above · Gunter

§ Orbital elements

Epoch: 2026-09-22T23:03:45.445824Z

Period
100.84 min
Inclination
50.0098°
Eccentricity
0.0011711
Mean motion
14.27992418 rev/d
Perigee alt
790.0 km
Apogee alt
806.9 km
Semi-major
7,176.6 km
B*
7.5736e-5
RAAN
268.4595°
Arg perigee
40.1966°
Mean anomaly
319.9813°
Rev number
12,090

§ Raw data

YUNHAI-2 02E1 59284U 24052E   26265.96094266  .00000028  00000+0  75736-4 0  99952 59284  50.0098 268.4595 0011711  40.1966 319.9813 14.27992418120901

JSON: /api/v1/satellites/59284 · /tle

For live sub-satellite position, see the globe view (requires WebGL).

§ Visibility from observer

Set your observer location to see the next 7 days of passes ≥ 10°. The values pass through the URL so the page stays shareable.

No JS? Fill the form by hand. The geolocation button needs JavaScript.